sat.trackr.live / text

‹ back to catalog

STARLINK-5641

NORAD 55359 · 2023-013AE

PAYLOAD ACTIVE UNKNOWN

§ Identity

Operator
Country
US
Launch date
2023-01-26
Launch site
AFETR
Launch vehicle
Mass (kg)
RCS (m²)

Purposes: comms

External: N2YO · Heavens-Above · Gunter

§ Orbital elements

Epoch: 2026-09-20T13:04:19.340256Z

Period
94.27 min
Inclination
43.0032°
Eccentricity
0.0002037
Mean motion
15.27575428 rev/d
Perigee alt
481.7 km
Apogee alt
484.5 km
Semi-major
6,861.2 km
B*
2.3562e-5
RAAN
286.4077°
Arg perigee
247.2708°
Mean anomaly
112.7929°
Rev number
20,143

§ Raw data

STARLINK-56411 55359U 23013AE  26263.54466829  .00000386  00000+0  23562-4 0  99972 55359  43.0032 286.4077 0002037 247.2708 112.7929 15.27575428201434

JSON: /api/v1/satellites/55359 · /tle

For live sub-satellite position, see the globe view (requires WebGL).

§ Visibility from observer

Set your observer location to see the next 7 days of passes ≥ 10°. The values pass through the URL so the page stays shareable.

No JS? Fill the form by hand. The geolocation button needs JavaScript.